ROMMA est une association bénévole à but non lucratif. Votre soutien est indispensable : ADHERER à ROMMA ou FAIRE un DON

Le Versoud - (38, Isère)

Vallée du Grésivaudan (220 m)   Longitude: 05° 51' 44" E   Latitude: 45° 13' 06" N Station partenaire n°6
 

Détail journalier du     <<     >>

Température Precipitation Humidité Pression Vent Dir Rafale Dir. rafale Ensol.
Heure (°C) (mm) (%) (hPa) (km/h) (km/h) (min)
01:00 19.5074101500---0
02:00 18.8072101600---0
03:00 18.4074101600---0
04:00 17.9076101600---0
05:00 17.4076101600---0
06:00 16.0083101600---0
07:00 15.8083101600---0
08:00 18.6072101600---55
09:00 20.2065101602NO60
10:00 22.4057101503OSO60
11:00 24.3052101505SO60
12:00 26.20451015011SO60
13:00 26.80481015010O60
14:00 28.40411014011NNE35
15:00 29.8038101308NE55
16:00 31.0035101305NNE55
17:00 31.4032101208NO60
18:00 29.803910121ONO15NNE5
19:00 28.20391012010NE0
20:00 26.7043101202ENE0
21:00 25.6049101200---20
22:00 23.6052101202N0
23:00 22.1057101302NNE0
minuit 20.7062101300---0

Graphique du 03-06-2019

 

Serveur OMMA